Temp
0 0 0 0 0 0 0 0 0 0 0 0 0 0 0 -0 -0 -0 -0 0 0 0 0 0 0 0 1 1 1 1 1 1 1 1 1 1 1 1 1 1 1 1 1 1 1 1 1 1 1 1 1 1 1 1 1 1 1 1 0 0 0 0 1 1 1 1 1 1 1 1 1 1 1 1
-0 0 -0 -0 -0 -0 -0 -0 -0 -0 0 0 0 0 0 -0 -0 -0 -0 0 0 0 0 0 0 0 0 0 1 1 1 1 1 1 1 1 1 1 1 1 1 1 1 1 1 1 1 1 1 1 1 1 1 1 1 1 1 1 1 1 1 0 0 1 1 1 1 1 1 1 1 1 1 1
-0 -0 -0 -1 -1 -0 -0 -0 -0 -0 -0 -0 -0 -0 -0 -0 -0 -0 -0 0 0 0 0 0 0 0 0 0 0 0 1 1 1 1 1 1 1 1 1 1 1 1 1 1 1 1 1 1 1 1 1 1 1 1 1 1 1 1 1 1 1 1 1 1 1 1 1 1 1 1 1 1 1 1
-1 -1 -1 -1 -1 -1 -1 -1 -1 -0 -0 -0 -0 -0 -0 -0 -0 -0 -0 -0 -0 -0 -0 -0 0 0 0 0 0 0 0 1 1 1 1 1 1 1 1 1 1 1 1 1 1 1 1 2 2 2 2 2 2 2 2 2 2 2 2 2 1 1 1 1 1 1 1 1 1 1 1 1 1 1
-1 -1 -1 -1 -1 -1 -1 -1 -1 -1 -1 -0 -0 -0 -0 -0 -0 -0 -0 -0 -0 -0 -0 -0 -0 -0 0 0 0 0 0 1 1 1 1 1 1 1 1 1 1 1 2 2 2 2 2 2 2 2 2 2 2 2 2 2 2 2 2 2 2 2 2 2 2 2 2 2 2 2 2 2 1 1
-1 -1 -1 -0 -0 -0 -0 -0 -0 -0 -0 -0 -0 -0 -0 -0 -0 -0 -0 -0 -0 -0 -0 -0 -0 -0 0 0 0 0 0 0 1 1 1 1 1 1 1 1 1 1 2 2 2 2 2 2 2 2 2 2 2 2 2 2 2 2 2 2 2 2 2 2 2 2 2 2 2 2 2 2 2 2
-0 -0 -0 -0 -0 -0 -0 -0 -0 -0 -0 -0 -0 -0 -0 -0 -0 -0 -0 -0 -0 -0 -0 -0 -0 -0 0 0 0 0 0 0 0 0 0 1 1 1 1 1 1 1 1 2 2 2 2 2 2 2 2 2 2 2 2 2 2 2 2 2 2 2 2 2 2 2 2 2 2 2 2 2 2 2
-0 -0 -0 -0 -0 -0 -0 -0 -0 -0 -0 -0 -0 -0 -0 -0 -0 -0 -0 -0 -0 -0 -0 -0 -0 -0 -0 -0 -0 -0 -0 0 0 0 0 0 0 1 1 1 1 1 1 1 1 2 2 2 2 2 2 2 2 2 2 2 2 2 2 2 2 2 2 2 2 2 2 2 2 2 2 2 2 2
-0 -0 -1 -1 -1 -1 -0 -0 -0 -0 -1 -1 -1 -0 -0 -0 -0 -0 -0 -0 -1 -1 -1 -1 -1 -1 -0 -0 -0 -0 -0 -0 -0 -0 -0 0 0 0 0 0 1 1 1 1 1 1 1 1 2 2 2 2 2 2 2 2 2 2 2 2 2 2 2 2 2 2 2 2 2 2 2 2 2 2
-1 -1 -1 -1 -1 -1 -1 -1 -1 -1 -1 -1 -1 -1 -1 -1 -1 -1 -1 -1 -1 -1 -1 -1 -1 -1 -1 -1 -0 -0 -0 -0 -0 -0 -0 -0 0 0 0 0 0 0 0 0 1 1 1 1 1 1 1 1 2 2 2 2 2 2 2 2 2 2 2 2 2 2 2 2 2 2 2 2 2 2
-1 -1 -1 -1 -1 -1 -1 -1 -1 -1 -1 -1 -1 -1 -1 -1 -1 -1 -1 -1 -1 -1 -1 -1 -1 -1 -1 -1 -1 -0 -0 -0 -0 -0 -0 -0 -0 -0 -0 0 0 0 0 0 0 0 0 1 1 1 1 1 1 1 2 2 2 2 2 2 2 2 2 2 2 2 2 2 2 2 2 2 2 2
-1 -1 -1 -1 -2 -2 -1 -1 -2 -2 -1 -2 -2 -2 -2 -2 -1 -2 -2 -2 -1 -1 -1 -1 -1 -1 -1 -1 -1 -1 -1 -1 -1 -0 -0 -0 -0 -0 -0 -0 -0 -0 -0 -0 0 0 0 0 0 1 1 1 1 1 1 1 1 1 2 2 2 2 2 2 2 2 2 2 2 2 2 2 2 2
-1 -1 -1 -1 -2 -2 -2 -2 -2 -2 -2 -2 -2 -2 -2 -2 -2 -2 -2 -2 -1 -1 -1 -1 -1 -1 -1 -1 -1 -1 -1 -1 -1 -1 -1 -1 -1 -1 -1 -1 -1 -0 -0 -0 -0 -0 0 0 0 0 1 1 1 1 1 1 1 1 1 2 2 2 2 2 2 2 2 2 2 2 2 2 2 2
-1 -1 -2 -2 -2 -2 -2 -2 -2 -2 -2 -2 -2 -2 -2 -2 -2 -2 -2 -2 -2 -2 -2 -2 -2 -2 -2 -2 -2 -2 -2 -2 -2 -1 -1 -1 -1 -1 -1 -1 -1 -1 -1 -1 -1 -1 -0 -0 0 0 0 0 1 1 1 1 1 1 1 1 1 1 2 2 2 2 2 2 2 2 2 2 2 2
-1 -2 -2 -2 -2 -2 -2 -2 -2 -2 -2 -2 -2 -2 -2 -2 -2 -2 -2 -2 -2 -2 -2 -2 -2 -2 -2 -2 -2 -2 -2 -2 -2 -2 -2 -2 -2 -2 -2 -2 -2 -1 -1 -1 -1 -1 -1 -1 -0 -0 -0 0 0 0 0 0 1 1 1 1 1 1 1 1 2 2 1 1 2 2 2 2 2 2
-1 -1 -1 -2 -2 -2 -2 -2 -2 -2 -2 -2 -2 -2 -2 -2 -2 -2 -2 -2 -2 -2 -2 -2 -2 -2 -3 -3 -3 -2 -2 -2 -2 -2 -2 -2 -2 -2 -2 -2 -2 -2 -2 -1 -1 -1 -1 -1 -1 -1 -0 -0 -0 0 0 0 0 1 1 1 1 1 1 1 1 1 1 1 1 1 1 1 2 2
-1 -1 -1 -2 -2 -2 -2 -2 -2 -2 -2 -2 -2 -2 -2 -2 -2 -2 -2 -2 -2 -2 -3 -3 -3 -3 -3 -3 -3 -3 -3 -3 -3 -3 -3 -2 -2 -2 -2 -2 -2 -2 -2 -2 -2 -1 -1 -1 -1 -1 -1 -1 -0 -0 -0 0 0 0 0 1 1 1 1 1 1 1 1 1 1 1 1 1 1 1
-1 -2 -2 -2 -2 -2 -2 -2 -2 -2 -2 -2 -2 -2 -2 -3 -3 -2 -3 -3 -3 -3 -3 -3 -3 -3 -3 -3 -3 -3 -3 -3 -3 -3 -3 -3 -2 -2 -2 -2 -2 -2 -2 -2 -2 -2 -2 -2 -1 -1 -1 -1 -1 -1 -1 -0 -0 -0 0 0 0 1 1 1 1 1 1 1 1 1 1 1 1 1
-2 -2 -2 -2 -2 -2 -2 -2 -2 -2 -2 -2 -2 -3 -3 -3 -3 -3 -3 -3 -3 -3 -3 -3 -3 -3 -3 -3 -3 -3 -3 -3 -3 -3 -3 -3 -3 -2 -2 -2 -2 -2 -2 -2 -2 -1 -1 -2 -2 -2 -2 -2 -1 -1 -1 -1 -1 -0 -0 -0 -0 0 0 0 0 1 1 1 1 1 1 1 1 1
-2 -2 -2 -2 -2 -2 -2 -2 -2 -2 -2 -3 -3 -3 -3 -3 -3 -3 -3 -3 -3 -3 -3 -3 -3 -3 -3 -3 -3 -3 -3 -3 -3 -3 -3 -3 -3 -3 -2 -2 -2 -2 -2 -2 -2 -2 -2 -2 -2 -2 -2 -2 -2 -2 -2 -2 -2 -1 -1 -1 -1 -1 -0 -0 -0 -0 0 0 0 0 0 0 0 0
-2 -2 -2 -2 -2 -2 -2 -2 -2 -2 -3 -3 -3 -3 -3 -3 -3 -3 -3 -3 -4 -4 -4 -4 -4 -4 -4 -4 -3 -3 -3 -3 -3 -3 -3 -3 -3 -3 -3 -3 -3 -3 -3 -3 -3 -2 -2 -3 -3 -2 -3 -3 -2 -2 -3 -3 -2 -2 -2 -2 -2 -1 -1 -1 -1 -1 -1 -1 -1 -1 -1 -0 -0 -0
-2 -2 -2 -2 -2 -2 -2 -2 -3 -3 -3 -3 -3 -3 -3 -3 -3 -4 -4 -4 -4 -4 -4 -4 -4 -4 -4 -4 -4 -4 -4 -4 -4 -4 -4 -4 -4 -4 -3 -3 -3 -3 -3 -3 -3 -3 -3 -3 -3 -3 -3 -3 -3 -3 -2 -2 -2 -2 -2 -2 -2 -2 -2 -2 -2 -2 -2 -2 -2 -2 -1 -1 -1 -1
-2 -2 -2 -2 -2 -2 -3 -3 -3 -3 -3 -3 -3 -3 -4 -4 -4 -4 -4 -4 -4 -4 -4 -4 -4 -4 -4 -4 -4 -4 -4 -4 -4 -4 -4 -4 -4 -4 -4 -4 -4 -4 -4 -4 -4 -3 -3 -3 -3 -3 -3 -2 -2 -2 -2 -2 -2 -2 -2 -2 -2 -2 -2 -2 -2 -3 -2 -2 -2 -2 -2 -2 -2 -2
-2 -2 -2 -3 -3 -3 -3 -3 -3 -3 -3 -3 -4 -4 -4 -4 -4 -4 -4 -4 -4 -4 -4 -4 -4 -4 -4 -4 -4 -4 -4 -4 -4 -4 -4 -4 -4 -4 -4 -4 -4 -4 -4 -4 -4 -4 -3 -3 -3 -3 -3 -3 -3 -3 -3 -3 -2 -2 -2 -2 -2 -2 -2 -2 -2 -2 -2 -2 -2 -2 -2 -2 -2 -2
-3 -3 -3 -3 -3 -3 -3 -3 -3 -3 -3 -3 -4 -4 -4 -4 -4 -4 -4 -4 -4 -4 -4 -4 -4 -4 -4 -4 -4 -4 -4 -4 -4 -4 -4 -4 -4 -4 -4 -4 -4 -4 -4 -4 -4 -4 -4 -3 -3 -3 -3 -3 -3 -3 -3 -3 -3 -3 -3 -3 -3 -2 -2 -2 -2 -2 -2 -2 -2 -2 -2 -2 -2 -2
-3 -3 -3 -3 -3 -3 -3 -4 -4 -4 -4 -4 -4 -4 -4 -4 -4 -4 -4 -4 -4 -4 -4 -4 -4 -4 -4 -4 -4 -4 -4 -5 -5 -5 -5 -5 -5 -5 -5 -5 -4 -4 -4 -4 -4 -4 -4 -4 -4 -4 -4 -4 -4 -4 -3 -3 -4 -4 -4 -3 -3 -3 -3 -3 -2 -2 -2 -2 -2 -2 -2 -2 -2 -2
-3 -3 -3 -4 -4 -4 -4 -4 -4 -4 -4 -4 -4 -4 -4 -4 -4 -4 -4 -4 -4 -4 -4 -4 -4 -4 -4 -4 -5 -5 -5 -5 -5 -5 -5 -5 -5 -5 -5 -5 -5 -4 -4 -4 -4 -4 -4 -4 -4 -4 -4 -4 -4 -4 -4 -4 -4 -5 -5 -5 -4 -4 -4 -4 -3 -3 -3 -3 -3 -2 -2 -2 -2 -2
-4 -4 -4 -4 -4 -4 -4 -4 -4 -4 -4 -4 -4 -4 -4 -4 -4 -4 -4 -4 -4 -4 -4 -4 -4 -4 -4 -5 -5 -5 -5 -5 -5 -5 -5 -5 -5 -5 -4 -4 -4 -4 -4 -4 -4 -5 -5 -5 -5 -5 -5 -5 -5 -5 -5 -6 -6 -6 -6 -6 -6 -6 -6 -5 -5 -5 -4 -4 -4 -3 -3 -3 -3 -2
-4 -4 -4 -4 -4 -4 -4 -4 -4 -4 -4 -4 -4 -4 -4 -4 -4 -4 -4 -4 -4 -4 -4 -4 -5 -5 -5 -5 -5 -5 -5 -5 -5 -5 -5 -5 -4 -4 -4 -4 -4 -4 -4 -4 -5 -5 -5 -5 -5 -6 -6 -6 -6 -6 -6 -6 -6 -7 -7 -7 -6 -7 -7 -7 -6 -6 -6 -5 -5 -5 -5 -4 -4 -3
-5 -4 -4 -4 -4 -4 -4 -4 -4 -4 -4 -4 -4 -4 -4 -4 -4 -4 -4 -4 -4 -5 -5 -5 -5 -5 -5 -5 -5 -5 -5 -5 -5 -5 -5 -4 -4 -4 -4 -4 -4 -5 -5 -5 -5 -6 -6 -6 -6 -6 -6 -6 -7 -7 -7 -7 -7 -7 -8 -8 -7 -7 -7 -7 -7 -7 -7 -6 -6 -6 -6 -5 -5 -5
-5 -5 -5 -4 -4 -4 -4 -4 -4 -5 -5 -5 -5 -4 -4 -4 -4 -4 -4 -5 -5 -5 -5 -5 -5 -5 -5 -5 -5 -5 -5 -5 -5 -5 -4 -4 -4 -5 -5 -5 -5 -6 -6 -6 -6 -6 -7 -7 -7 -7 -7 -7 -7 -7 -7 -7 -8 -8 -8 -8 -8 -8 -8 -8 -8 -7 -7 -7 -7 -7 -7 -7 -7 -6
-5 -5 -5 -5 -5 -5 -5 -5 -5 -5 -5 -5 -5 -5 -5 -5 -5 -5 -5 -5 -5 -5 -5 -5 -5 -5 -5 -5 -5 -5 -5 -5 -5 -5 -5 -5 -5 -5 -5 -6 -6 -6 -6 -7 -7 -7 -7 -7 -7 -7 -7 -7 -7 -8 -8 -8 -9 -9 -9 -9 -9 -8 -8 -8 -8 -8 -8 -8 -7 -7 -7 -7 -7 -7
-5 -5 -5 -5 -5 -5 -5 -5 -5 -5 -5 -5 -5 -5 -5 -5 -5 -5 -5 -5 -5 -5 -5 -6 -5 -5 -5 -5 -5 -5 -5 -5 -6 -6 -6 -6 -6 -6 -6 -6 -6 -7 -7 -7 -7 -7 -7 -7 -7 -7 -7 -8 -8 -8 -8 -9 -9 -9 -9 -9 -9 -8 -8 -8 -8 -8 -8 -8 -8 -8 -7 -8 -8 -8
-5 -5 -5 -5 -5 -5 -5 -5 -6 -6 -6 -6 -5 -5 -5 -5 -6 -6 -6 -6 -6 -6 -6 -5 -5 -5 -5 -5 -5 -5 -6 -6 -6 -7 -7 -7 -7 -7 -7 -7 -7 -7 -7 -7 -7 -7 -7 -7 -7 -7 -8 -8 -8 -8 -9 -9 -9 -10 -10 -9 -9 -9 -8 -8 -8 -8 -8 -8 -8 -8 -8 -8 -8 -9
-6 -6 -6 -6 -6 -6 -6 -6 -6 -6 -6 -6 -6 -6 -6 -6 -6 -6 -6 -6 -6 -6 -6 -5 -5 -5 -5 -5 -6 -6 -6 -7 -7 -7 -7 -7 -7 -7 -7 -7 -7 -7 -7 -7 -7 -7 -7 -7 -7 -8 -8 -8 -8 -8 -9 -9 -9 -9 -9 -9 -9 -9 -8 -8 -8 -8 -8 -8 -8 -8 -8 -8 -9 -9
-7 -7 -7 -7 -7 -7 -7 -7 -7 -7 -7 -7 -7 -7 -7 -6 -6 -6 -6 -6 -6 -6 -6 -6 -6 -5 -6 -6 -6 -6 -7 -7 -7 -8 -8 -8 -8 -8 -7 -7 -7 -7 -7 -7 -7 -7 -7 -7 -8 -8 -8 -8 -8 -8 -8 -9 -9 -9 -9 -9 -9 -9 -9 -9 -9 -9 -9 -9 -9 -8 -9 -9 -9 -10
-7 -7 -7 -7 -7 -7 -7 -7 -7 -7 -7 -7 -7 -7 -7 -7 -7 -7 -6 -6 -6 -6 -6 -6 -6 -6 -6 -6 -7 -7 -7 -8 -8 -8 -8 -8 -8 -8 -7 -7 -7 -7 -7 -7 -7 -7 -7 -7 -8 -8 -8 -8 -8 -8 -8 -9 -9 -9 -9 -9 -9 -9 -9 -9 -9 -9 -9 -9 -9 -9 -9 -9 -10 -10
-8 -8 -8 -8 -8 -8 -8 -8 -8 -7 -7 -7 -7 -7 -7 -7 -7 -7 -7 -6 -6 -6 -6 -6 -6 -6 -6 -7 -7 -8 -8 -8 -8 -8 -8 -8 -8 -8 -7 -7 -7 -7 -7 -7 -8 -8 -8 -8 -8 -8 -8 -8 -8 -8 -9 -9 -9 -9 -9 -9 -9 -9 -9 -9 -9 -9 -9 -9 -9 -9 -9 -9 -10 -10
-8 -8 -7 -8 -8 -8 -8 -8 -8 -8 -8 -8 -8 -8 -8 -7 -7 -7 -7 -7 -7 -6 -6 -6 -6 -6 -7 -7 -8 -8 -8 -8 -8 -8 -8 -8 -8 -8 -8 -7 -7 -7 -7 -7 -8 -8 -8 -8 -8 -8 -8 -8 -9 -9 -9 -9 -9 -9 -9 -9 -9 -9 -10 -10 -10 -9 -9 -9 -9 -9 -9 -9 -9 -10
-8 -7 -7 -8 -8 -8 -8 -8 -8 -8 -8 -8 -8 -8 -8 -7 -7 -7 -7 -7 -7 -6 -6 -6 -7 -7 -7 -8 -8 -8 -8 -8 -8 -8 -8 -8 -8 -8 -8 -7 -7 -7 -7 -7 -8 -8 -8 -8 -8 -8 -8 -9 -9 -9 -9 -9 -9 -9 -9 -9 -9 -10 -10 -10 -10 -9 -9 -9 -9 -9 -9 -9 -10 -10
-8 -7 -7 -8 -8 -8 -8 -8 -8 -9 -9 -8 -8 -8 -8 -7 -7 -7 -7 -7 -7 -7 -7 -7 -7 -7 -7 -8 -8 -8 -8 -8 -8 -9 -9 -8 -8 -8 -8 -7 -7 -7 -7 -7 -8 -8 -8 -8 -8 -8 -8 -9 -9 -9 -9 -9 -10 -10 -10 -10 -10 -10 -10 -10 -10 -9 -9 -9 -9 -9 -9 -9 -9 -9
-8 -8 -8 -8 -8 -8 -8 -8 -9 -9 -9 -8 -8 -8 -8 -8 -7 -7 -7 -7 -7 -7 -7 -7 -7 -7 -8 -8 -9 -9 -8 -8 -8 -9 -9 -8 -8 -8 -8 -8 -8 -8 -8 -8 -8 -8 -8 -8 -8 -8 -9 -9 -9 -9 -10 -10 -10 -10 -10 -10 -10 -10 -10 -10 -10 -9 -9 -9 -9 -9 -9 -9 -9 -9
-8 -8 -8 -8 -8 -8 -9 -9 -9 -9 -8 -8 -8 -8 -8 -8 -8 -7 -7 -7 -7 -7 -7 -7 -7 -8 -8 -8 -9 -9 -8 -8 -8 -8 -9 -9 -8 -8 -8 -8 -8 -9 -9 -9 -9 -8 -8 -8 -8 -8 -9 -9 -9 -10 -10 -10 -10 -10 -10 -10 -10 -10 -10 -10 -10 -9 -9 -9 -9 -10 -9 -9 -9 -10
-8 -9 -9 -9 -9 -9 -9 -9 -9 -9 -8 -8 -8 -8 -8 -8 -8 -8 -8 -7 -7 -8 -8 -8 -8 -8 -8 -8 -9 -9 -8 -8 -8 -9 -9 -9 -9 -9 -8 -8 -9 -9 -9 -9 -9 -8 -8 -8 -8 -9 -9 -9 -10 -10 -10 -10 -10 -10 -10 -10 -10 -10 -10 -10 -10 -10 -10 -10 -10 -10 -9 -9 -10 -10
-9 -9 -9 -9 -9 -9 -9 -9 -9 -8 -8 -8 -8 -8 -8 -8 -8 -8 -8 -8 -8 -8 -8 -8 -8 -8 -8 -8 -8 -9 -9 -8 -8 -9 -9 -9 -9 -9 -9 -9 -9 -9 -10 -9 -9 -8 -8 -8 -8 -9 -9 -10 -10 -10 -11 -11 -11 -11 -11 -11 -11 -11 -10 -10 -10 -10 -10 -10 -10 -10 -10 -10 -10 -10
Height
3146 3147 3148 3149 3149 3150 3150 3151 3151 3152 3153 3153 3154 3155 3155 3156 3156 3157 3157 3157 3157 3156 3156 3156 3155 3155 3155 3154 3154 3154 3153 3153 3152 3152 3151 3151 3150 3150 3149 3149 3148 3148 3148 3147 3147 3147 3146 3146 3146 3145 3145 3144 3144 3144 3143 3143 3143 3142 3142 3141 3141 3141 3141 3141 3141 3141 3141 3141 3141 3141 3141 3142 3142 3143
3147 3147 3148 3149 3150 3150 3151 3151 3152 3152 3153 3154 3154 3155 3155 3156 3157 3157 3157 3157 3157 3156 3156 3155 3155 3154 3154 3153 3153 3153 3152 3152 3152 3151 3151 3150 3150 3149 3149 3148 3147 3147 3146 3146 3146 3145 3145 3144 3144 3144 3143 3143 3142 3142 3142 3141 3141 3140 3140 3139 3139 3139 3139 3138 3139 3139 3138 3138 3138 3138 3138 3139 3139 3139
3147 3148 3148 3149 3150 3151 3151 3152 3152 3153 3153 3154 3154 3155 3155 3156 3156 3156 3156 3156 3156 3155 3155 3154 3154 3153 3153 3152 3152 3152 3151 3151 3151 3150 3150 3149 3149 3148 3148 3147 3146 3145 3145 3144 3144 3144 3143 3143 3142 3142 3141 3141 3141 3140 3140 3139 3139 3139 3138 3138 3137 3137 3137 3136 3136 3136 3136 3136 3135 3135 3135 3136 3136 3136
3147 3148 3149 3149 3150 3151 3151 3152 3152 3153 3153 3154 3154 3154 3155 3155 3155 3155 3155 3155 3154 3154 3153 3153 3152 3152 3152 3151 3151 3150 3150 3150 3149 3149 3148 3148 3147 3147 3146 3146 3145 3144 3143 3143 3142 3142 3141 3141 3140 3140 3140 3139 3139 3138 3138 3137 3137 3137 3136 3136 3136 3135 3135 3135 3134 3134 3134 3133 3133 3133 3133 3133 3133 3132
3148 3148 3149 3149 3150 3150 3151 3151 3152 3152 3153 3153 3153 3154 3154 3154 3154 3154 3154 3153 3153 3153 3152 3152 3151 3151 3151 3150 3150 3149 3148 3148 3147 3147 3146 3146 3145 3144 3144 3144 3143 3142 3142 3141 3141 3140 3139 3139 3138 3138 3137 3137 3136 3136 3135 3135 3135 3134 3134 3133 3133 3133 3133 3132 3132 3132 3132 3131 3131 3131 3130 3130 3130 3129
3148 3148 3149 3149 3150 3150 3150 3151 3151 3152 3152 3152 3152 3153 3153 3153 3153 3153 3153 3152 3152 3152 3151 3151 3150 3150 3149 3149 3148 3148 3147 3146 3146 3145 3144 3144 3143 3142 3141 3141 3141 3140 3140 3139 3139 3138 3138 3137 3136 3136 3135 3135 3134 3133 3133 3132 3132 3131 3131 3131 3130 3130 3130 3129 3129 3129 3129 3129 3128 3128 3127 3127 3127 3127
3147 3148 3148 3149 3149 3150 3150 3150 3151 3151 3151 3151 3152 3152 3152 3152 3152 3152 3151 3151 3151 3150 3150 3150 3149 3149 3148 3147 3147 3146 3146 3145 3144 3143 3142 3141 3141 3140 3139 3138 3138 3137 3137 3136 3136 3135 3135 3135 3134 3134 3133 3132 3132 3131 3130 3130 3129 3129 3128 3128 3127 3127 3126 3126 3126 3126 3125 3125 3125 3125 3124 3124 3123 3123
3147 3147 3147 3148 3148 3148 3149 3149 3150 3150 3150 3150 3150 3150 3150 3150 3150 3150 3150 3150 3149 3149 3148 3148 3148 3147 3147 3146 3145 3145 3144 3144 3143 3142 3140 3139 3138 3137 3136 3136 3135 3134 3134 3133 3132 3131 3131 3131 3130 3130 3130 3129 3129 3128 3128 3127 3126 3126 3125 3125 3124 3124 3123 3123 3122 3122 3122 3121 3121 3121 3120 3120 3120 3120
3146 3146 3147 3147 3147 3147 3148 3148 3148 3148 3149 3148 3148 3149 3149 3148 3148 3148 3148 3148 3147 3147 3146 3146 3146 3145 3145 3144 3144 3143 3142 3141 3140 3139 3138 3137 3136 3135 3134 3133 3132 3131 3131 3130 3129 3129 3128 3127 3126 3126 3125 3125 3125 3125 3124 3124 3123 3122 3122 3121 3121 3120 3120 3119 3119 3118 3118 3118 3117 3117 3117 3116 3116 3115
3144 3144 3145 3145 3146 3146 3146 3146 3146 3146 3146 3146 3146 3146 3146 3146 3146 3146 3146 3145 3145 3145 3144 3143 3143 3143 3143 3142 3141 3141 3140 3138 3137 3136 3135 3134 3133 3132 3131 3130 3129 3128 3127 3126 3126 3125 3124 3123 3122 3122 3121 3120 3120 3120 3120 3119 3119 3119 3118 3118 3117 3117 3116 3116 3115 3115 3114 3114 3114 3113 3113 3112 3112 3111
3142 3142 3143 3143 3143 3144 3144 3143 3143 3143 3143 3144 3144 3144 3144 3144 3144 3144 3143 3143 3143 3142 3142 3141 3141 3140 3140 3139 3138 3137 3136 3135 3134 3133 3133 3131 3130 3129 3128 3127 3126 3125 3124 3123 3122 3121 3121 3120 3118 3117 3117 3116 3116 3115 3114 3114 3114 3114 3114 3114 3113 3113 3112 3112 3111 3111 3110 3110 3110 3109 3109 3109 3108 3108
3140 3140 3140 3141 3141 3141 3141 3141 3141 3141 3141 3141 3141 3142 3142 3141 3141 3141 3141 3141 3140 3140 3139 3139 3138 3138 3137 3135 3135 3134 3133 3132 3131 3130 3129 3128 3127 3126 3125 3124 3122 3122 3121 3120 3118 3117 3116 3116 3115 3113 3112 3112 3112 3111 3109 3109 3109 3108 3108 3108 3108 3108 3108 3107 3107 3107 3106 3106 3105 3105 3105 3105 3105 3104
3137 3137 3137 3138 3139 3139 3139 3139 3138 3138 3139 3139 3139 3139 3139 3139 3139 3139 3138 3138 3138 3137 3137 3136 3135 3135 3134 3132 3131 3130 3129 3128 3127 3126 3125 3124 3123 3123 3122 3120 3118 3117 3118 3116 3114 3113 3111 3111 3111 3109 3107 3107 3107 3106 3104 3104 3104 3103 3103 3102 3102 3102 3102 3102 3102 3101 3101 3101 3101 3100 3100 3100 3100 3100
3135 3134 3134 3135 3135 3136 3136 3136 3136 3136 3137 3137 3136 3137 3137 3137 3136 3136 3136 3135 3135 3135 3134 3133 3133 3132 3131 3130 3128 3127 3126 3125 3124 3123 3121 3120 3119 3118 3117 3117 3114 3113 3113 3113 3111 3110 3108 3106 3105 3105 3103 3101 3101 3101 3099 3098 3097 3097 3097 3097 3096 3096 3096 3096 3096 3096 3096 3096 3096 3095 3095 3095 3095 3095
3131 3131 3131 3131 3132 3133 3134 3134 3134 3134 3134 3134 3134 3134 3134 3134 3134 3134 3133 3132 3132 3132 3131 3130 3129 3129 3128 3126 3125 3124 3122 3121 3120 3119 3117 3116 3115 3114 3112 3112 3110 3108 3107 3107 3107 3106 3104 3102 3100 3100 3099 3097 3096 3096 3094 3093 3091 3090 3090 3090 3090 3090 3090 3090 3089 3089 3089 3089 3089 3090 3090 3089 3090 3089
3129 3128 3128 3127 3128 3130 3131 3132 3132 3132 3132 3132 3132 3131 3131 3131 3131 3131 3131 3130 3129 3129 3128 3127 3126 3125 3124 3122 3121 3120 3119 3117 3116 3115 3113 3111 3110 3109 3108 3107 3106 3104 3102 3101 3101 3101 3100 3097 3095 3095 3094 3092 3091 3091 3089 3088 3087 3085 3084 3084 3083 3083 3083 3083 3083 3083 3083 3083 3083 3083 3083 3083 3084 3084
3125 3125 3124 3124 3126 3127 3128 3129 3129 3129 3129 3129 3129 3129 3128 3128 3127 3127 3127 3127 3126 3125 3124 3123 3122 3121 3120 3118 3116 3116 3115 3113 3112 3110 3109 3107 3105 3104 3103 3102 3101 3100 3097 3096 3095 3095 3094 3092 3089 3089 3089 3087 3085 3085 3084 3083 3082 3080 3078 3077 3077 3077 3076 3076 3076 3076 3076 3076 3076 3076 3076 3077 3077 3077
3121 3121 3122 3123 3123 3124 3126 3127 3127 3127 3127 3126 3126 3126 3125 3125 3124 3124 3124 3123 3123 3122 3120 3119 3118 3116 3116 3115 3113 3111 3110 3109 3107 3106 3104 3103 3101 3099 3098 3097 3096 3094 3092 3091 3090 3089 3089 3087 3083 3081 3082 3081 3079 3078 3077 3076 3075 3074 3072 3071 3071 3070 3070 3069 3069 3069 3069 3069 3069 3069 3070 3070 3070 3071
3120 3120 3121 3121 3122 3122 3123 3124 3124 3124 3123 3123 3123 3122 3122 3122 3121 3121 3120 3119 3119 3118 3117 3116 3114 3113 3112 3111 3109 3107 3106 3104 3103 3101 3100 3098 3096 3094 3093 3093 3091 3090 3088 3086 3084 3083 3082 3081 3078 3075 3074 3074 3073 3071 3070 3069 3068 3067 3066 3065 3064 3064 3063 3062 3062 3061 3061 3061 3062 3062 3063 3063 3063 3064
3118 3119 3119 3120 3120 3120 3120 3120 3120 3121 3120 3120 3120 3120 3119 3119 3118 3117 3117 3116 3115 3114 3113 3112 3110 3109 3108 3106 3105 3103 3102 3100 3098 3096 3094 3093 3091 3089 3087 3087 3086 3084 3082 3079 3077 3076 3075 3074 3072 3070 3068 3067 3066 3065 3064 3062 3061 3061 3060 3058 3057 3057 3056 3056 3055 3055 3054 3054 3054 3055 3055 3056 3056 3057
3116 3116 3117 3117 3117 3117 3117 3117 3117 3118 3118 3117 3117 3116 3116 3115 3114 3114 3113 3112 3111 3110 3109 3108 3107 3105 3104 3102 3101 3099 3098 3096 3094 3092 3090 3088 3086 3083 3082 3080 3079 3078 3076 3074 3072 3070 3068 3067 3066 3064 3063 3061 3060 3060 3059 3057 3055 3054 3053 3052 3051 3051 3050 3049 3049 3048 3048 3047 3047 3047 3047 3048 3049 3049
3113 3113 3114 3114 3114 3114 3114 3114 3115 3115 3115 3114 3113 3113 3112 3111 3110 3110 3109 3108 3107 3106 3105 3104 3103 3101 3100 3098 3097 3095 3093 3092 3089 3087 3085 3083 3081 3078 3076 3075 3073 3072 3070 3068 3065 3064 3062 3061 3059 3057 3056 3055 3054 3053 3052 3051 3049 3048 3047 3046 3045 3045 3044 3044 3043 3042 3041 3041 3041 3040 3040 3041 3041 3042
3109 3110 3110 3111 3111 3111 3111 3111 3111 3111 3111 3111 3110 3109 3108 3107 3106 3106 3105 3104 3103 3102 3100 3099 3098 3097 3095 3093 3091 3089 3088 3086 3084 3081 3079 3077 3074 3072 3070 3069 3066 3065 3064 3062 3059 3057 3056 3055 3053 3052 3050 3049 3048 3047 3045 3044 3043 3042 3041 3040 3039 3038 3038 3038 3038 3036 3035 3034 3034 3034 3034 3034 3034 3035
3106 3107 3107 3107 3108 3108 3108 3108 3108 3107 3107 3107 3106 3105 3105 3103 3102 3102 3101 3100 3098 3097 3095 3094 3093 3091 3089 3087 3085 3083 3081 3079 3077 3075 3073 3071 3069 3066 3064 3063 3061 3059 3058 3057 3054 3052 3050 3049 3048 3047 3045 3042 3041 3040 3038 3037 3036 3035 3034 3033 3032 3030 3030 3031 3031 3030 3029 3028 3028 3028 3028 3027 3028 3028
3103 3103 3104 3104 3105 3105 3105 3104 3104 3103 3103 3102 3102 3101 3101 3100 3099 3098 3097 3096 3094 3093 3091 3090 3088 3086 3084 3081 3079 3077 3075 3072 3070 3069 3067 3065 3063 3061 3059 3057 3055 3054 3053 3051 3049 3046 3044 3042 3041 3040 3039 3036 3034 3033 3031 3030 3029 3028 3026 3025 3024 3023 3022 3022 3023 3023 3022 3021 3021 3021 3020 3020 3020 3021
3099 3100 3101 3101 3101 3101 3100 3100 3100 3099 3099 3099 3098 3098 3097 3096 3095 3094 3092 3091 3090 3089 3087 3085 3083 3081 3079 3076 3074 3071 3069 3067 3065 3063 3061 3059 3058 3056 3054 3052 3050 3048 3047 3045 3043 3041 3038 3036 3035 3033 3031 3030 3028 3026 3025 3023 3022 3020 3018 3017 3015 3014 3013 3013 3014 3014 3013 3013 3013 3013 3013 3013 3013 3014
3096 3097 3097 3097 3097 3096 3096 3096 3096 3096 3096 3095 3095 3094 3093 3092 3091 3090 3089 3087 3086 3084 3083 3081 3078 3076 3074 3072 3069 3067 3065 3063 3061 3059 3057 3055 3053 3051 3049 3047 3045 3043 3041 3040 3038 3035 3033 3030 3029 3027 3025 3023 3021 3020 3018 3017 3015 3013 3012 3010 3008 3007 3005 3004 3004 3004 3004 3004 3004 3005 3004 3005 3005 3006
3093 3093 3093 3093 3093 3093 3093 3093 3093 3093 3092 3092 3091 3090 3089 3088 3087 3086 3085 3084 3082 3080 3078 3076 3074 3072 3070 3067 3065 3063 3061 3059 3057 3055 3053 3051 3049 3047 3045 3043 3041 3039 3037 3035 3033 3030 3027 3025 3023 3021 3019 3017 3015 3014 3013 3011 3009 3008 3006 3004 3002 3001 2999 2998 2996 2996 2996 2996 2996 2996 2996 2996 2996 2997
3089 3089 3089 3089 3089 3089 3089 3089 3089 3089 3088 3088 3087 3086 3085 3085 3083 3082 3081 3079 3078 3076 3073 3071 3070 3067 3065 3063 3061 3059 3058 3056 3053 3051 3049 3047 3045 3042 3040 3038 3036 3034 3032 3030 3027 3025 3022 3020 3018 3017 3015 3014 3012 3010 3008 3006 3005 3004 3001 2998 2996 2995 2994 2993 2991 2990 2989 2989 2988 2988 2989 2989 2989 2989
3085 3085 3085 3086 3086 3086 3085 3085 3085 3084 3084 3083 3083 3082 3081 3080 3079 3078 3077 3075 3073 3071 3069 3067 3065 3063 3062 3060 3058 3056 3054 3052 3050 3047 3044 3042 3040 3037 3035 3033 3031 3029 3027 3024 3021 3019 3016 3015 3014 3013 3012 3010 3009 3007 3004 3002 3001 2999 2997 2994 2991 2990 2990 2989 2987 2985 2984 2983 2982 2982 2982 2982 2983 2983
3082 3081 3081 3081 3081 3081 3081 3081 3080 3080 3080 3079 3079 3078 3077 3076 3075 3074 3072 3071 3069 3067 3065 3063 3062 3060 3058 3057 3054 3052 3050 3048 3045 3043 3040 3037 3034 3032 3029 3027 3025 3024 3022 3019 3016 3014 3012 3011 3011 3009 3008 3007 3005 3003 3001 2999 2997 2995 2992 2990 2987 2985 2986 2985 2983 2981 2979 2978 2977 2977 2977 2978 2978 2978
3077 3077 3077 3077 3077 3077 3077 3076 3076 3076 3075 3075 3074 3074 3073 3072 3071 3070 3068 3067 3065 3063 3062 3060 3058 3057 3055 3053 3051 3048 3046 3043 3041 3038 3035 3032 3029 3026 3024 3022 3020 3018 3017 3015 3013 3011 3009 3008 3008 3006 3005 3003 3002 3000 2997 2995 2993 2990 2987 2986 2984 2982 2981 2980 2979 2977 2976 2974 2973 2973 2974 2974 2974 2974
3073 3073 3073 3073 3073 3073 3073 3073 3072 3072 3071 3071 3070 3070 3069 3068 3067 3066 3064 3063 3061 3060 3058 3057 3055 3053 3051 3049 3047 3045 3042 3040 3037 3034 3030 3027 3024 3022 3019 3017 3016 3014 3013 3012 3010 3008 3007 3006 3004 3003 3002 3000 2999 2997 2994 2992 2990 2987 2984 2982 2980 2979 2977 2976 2975 2974 2973 2971 2970 2970 2971 2971 2971 2970
3069 3069 3069 3069 3069 3069 3069 3069 3068 3068 3068 3067 3066 3066 3065 3064 3063 3062 3060 3059 3058 3056 3055 3053 3052 3050 3048 3046 3043 3041 3039 3036 3033 3030 3026 3023 3020 3017 3015 3014 3012 3011 3010 3009 3008 3006 3004 3003 3001 3000 2999 2997 2996 2994 2991 2988 2986 2984 2981 2978 2976 2975 2974 2973 2971 2970 2970 2968 2967 2967 2968 2968 2966 2965
3065 3065 3066 3066 3065 3065 3065 3065 3065 3064 3064 3063 3062 3061 3060 3060 3059 3058 3057 3056 3055 3053 3052 3050 3048 3046 3044 3042 3040 3037 3035 3032 3029 3025 3022 3019 3016 3014 3012 3011 3009 3009 3007 3006 3005 3003 3002 3000 2998 2997 2995 2994 2992 2991 2988 2985 2983 2981 2978 2975 2973 2971 2970 2969 2968 2967 2966 2966 2965 2964 2965 2964 2963 2961
3062 3062 3062 3062 3061 3061 3061 3061 3061 3060 3060 3059 3058 3057 3057 3056 3055 3054 3054 3053 3051 3050 3048 3047 3045 3043 3041 3039 3037 3034 3031 3027 3024 3021 3018 3015 3013 3011 3009 3008 3007 3006 3005 3004 3003 3001 2999 2998 2996 2994 2993 2991 2990 2988 2986 2983 2981 2978 2975 2972 2970 2968 2966 2965 2964 2964 2963 2963 2962 2962 2962 2961 2960 2958
3059 3058 3058 3058 3058 3058 3058 3057 3057 3056 3056 3055 3055 3054 3053 3053 3052 3051 3050 3049 3048 3047 3045 3044 3042 3040 3038 3036 3033 3030 3027 3024 3020 3017 3014 3012 3010 3008 3007 3006 3005 3004 3003 3002 3000 2999 2997 2996 2994 2992 2990 2989 2987 2985 2983 2981 2979 2975 2972 2970 2968 2966 2964 2963 2962 2961 2960 2960 2960 2960 2959 2959 2958 2957
3055 3055 3055 3055 3054 3054 3054 3053 3053 3053 3052 3052 3051 3051 3050 3050 3049 3048 3048 3047 3045 3044 3042 3041 3039 3037 3035 3033 3030 3027 3024 3021 3017 3014 3011 3009 3007 3006 3004 3003 3002 3001 3001 2999 2998 2996 2995 2993 2992 2990 2988 2986 2984 2982 2980 2979 2977 2973 2970 2967 2965 2963 2961 2960 2959 2958 2958 2958 2958 2958 2958 2957 2957 2956
3051 3051 3052 3051 3051 3051 3050 3050 3049 3049 3049 3049 3048 3048 3047 3047 3046 3046 3045 3044 3043 3041 3040 3038 3037 3035 3033 3030 3027 3024 3021 3018 3015 3011 3009 3007 3005 3003 3002 3001 3000 2999 2998 2997 2995 2994 2992 2991 2989 2987 2985 2984 2982 2979 2977 2976 2974 2971 2968 2965 2963 2961 2959 2958 2957 2956 2956 2956 2956 2956 2956 2956 2956 2955
3048 3049 3049 3049 3048 3047 3047 3047 3046 3046 3046 3046 3046 3045 3045 3044 3044 3043 3043 3042 3041 3039 3038 3036 3035 3033 3030 3027 3025 3022 3019 3016 3012 3009 3006 3004 3003 3001 3000 2999 2998 2996 2995 2994 2993 2991 2990 2988 2986 2985 2983 2981 2979 2977 2974 2973 2971 2969 2966 2963 2961 2959 2957 2956 2955 2955 2955 2955 2955 2955 2955 2955 2955 2954
3045 3046 3046 3046 3045 3044 3044 3044 3044 3044 3044 3043 3043 3043 3043 3042 3042 3041 3041 3040 3039 3038 3036 3035 3033 3030 3028 3025 3022 3020 3017 3013 3010 3007 3004 3002 3001 2999 2998 2996 2995 2994 2992 2991 2990 2989 2987 2986 2984 2983 2981 2979 2976 2974 2972 2971 2969 2966 2964 2961 2959 2958 2956 2955 2955 2955 2955 2955 2955 2955 2955 2955 2955 2954
3043 3043 3043 3043 3042 3041 3041 3041 3041 3041 3041 3041 3041 3041 3040 3040 3040 3039 3039 3038 3037 3036 3034 3033 3030 3028 3025 3023 3020 3017 3014 3011 3008 3005 3003 3000 2999 2997 2996 2994 2993 2991 2990 2989 2987 2986 2985 2984 2982 2980 2978 2976 2974 2972 2971 2969 2967 2964 2962 2960 2958 2957 2956 2955 2955 2955 2954 2954 2954 2954 2954 2954 2954 2953
3039 3040 3040 3039 3039 3039 3039 3039 3039 3039 3039 3039 3039 3039 3039 3038 3038 3038 3037 3036 3035 3034 3032 3030 3028 3026 3023 3021 3018 3015 3012 3009 3006 3003 3001 2999 2997 2995 2994 2993 2991 2989 2987 2986 2985 2984 2983 2982 2980 2978 2976 2974 2972 2971 2969 2967 2965 2963 2960 2959 2958 2957 2956 2955 2955 2954 2954 2954 2954 2954 2954 2954 2954 2953
3036 3036 3036 3036 3037 3037 3037 3037 3037 3037 3037 3037 3037 3037 3037 3037 3036 3036 3036 3035 3034 3032 3031 3029 3026 3024 3022 3019 3017 3013 3010 3008 3005 3002 3000 2998 2996 2994 2992 2991 2989 2987 2986 2985 2984 2982 2981 2979 2978 2976 2974 2972 2971 2969 2967 2966 2964 2961 2960 2958 2957 2957 2956 2955 2954 2954 2954 2954 2954 2954 2954 2954 2953 2953
3032 3033 3033 3034 3034 3034 3035 3035 3035 3035 3035 3035 3035 3035 3035 3035 3035 3035 3034 3033 3032 3031 3029 3027 3025 3023 3020 3018 3015 3012 3009 3007 3004 3002 2999 2996 2994 2992 2991 2989 2988 2986 2985 2983 2982 2981 2979 2978 2976 2974 2973 2971 2969 2968 2966 2964 2963 2961 2959 2958 2957 2956 2956 2955 2955 2954 2954 2954 2954 2954 2953 2953 2953 2952
Wind_Speed
10 9 9 9 8 7 6 6 5 5 5 4 4 4 4 4 3 1 1 2 2 3 3 4 4 5 5 5 6 6 6 7 7 7 8 9 9 10 10 11 12 12 12 12 13 13 14 15 15 15 15 15 15 15 15 15 16 18 20 22 25 27 28 27 26 26 25 24 24 24 24 25 25 25
11 10 10 9 8 7 6 5 5 4 4 3 3 3 3 3 2 1 1 2 3 4 5 6 6 7 7 8 8 8 8 9 9 9 9 10 10 10 11 11 12 12 13 13 14 14 15 16 16 17 17 17 17 17 17 17 18 18 19 19 20 23 26 27 28 28 28 27 27 27 27 27 26 26
11 10 9 8 7 6 6 5 4 3 3 3 2 2 1 1 0 1 3 5 5 6 7 8 9 9 10 11 11 11 12 12 13 13 13 13 12 12 12 12 12 12 13 13 14 14 15 16 16 17 17 18 18 18 19 19 19 19 20 20 20 20 20 22 23 24 25 26 27 29 30 30 31 30
10 10 8 7 6 5 4 3 2 2 2 1 1 2 2 3 3 4 6 7 8 9 10 11 11 12 13 13 14 14 15 16 16 17 17 17 17 16 16 15 15 15 15 15 15 15 15 16 16 17 17 18 18 19 19 20 20 21 21 21 22 22 21 21 21 21 21 22 23 25 27 28 30 32
9 8 7 7 6 5 5 4 4 3 3 3 4 4 5 6 6 7 8 9 10 11 11 12 13 13 14 15 15 16 16 17 17 18 18 19 19 20 19 19 19 19 18 18 18 18 17 17 17 18 18 18 19 19 20 20 20 21 22 22 23 23 24 24 23 23 23 23 23 23 24 24 25 27
8 8 7 6 6 6 6 6 6 6 6 6 6 7 8 8 9 9 9 10 10 11 11 12 13 13 14 15 15 16 17 18 18 19 19 20 21 22 22 22 22 21 21 21 20 20 19 19 19 19 20 20 20 20 21 21 21 21 21 22 23 23 24 25 25 26 26 26 25 25 25 25 24 24
8 8 8 8 7 7 6 6 6 7 7 8 8 9 9 10 11 11 11 12 12 12 12 13 14 14 15 16 17 17 18 19 20 21 22 23 23 23 23 24 24 24 24 24 24 23 22 21 21 21 21 21 21 21 22 22 22 23 22 22 22 23 23 24 25 26 27 27 27 27 27 26 26 25
8 8 9 9 8 8 8 8 8 8 9 9 10 10 11 11 12 13 14 14 14 14 14 15 16 16 17 18 19 21 21 21 22 23 24 24 25 25 24 25 25 25 25 26 26 26 26 25 24 24 23 23 23 23 23 23 23 24 24 24 23 23 23 24 24 25 26 26 27 28 28 28 28 27
10 11 11 11 11 10 10 11 11 12 13 14 14 13 13 12 13 14 14 15 15 15 17 18 19 20 21 22 23 23 24 25 25 25 26 26 25 25 25 25 26 25 25 26 26 26 27 27 27 27 26 25 25 24 24 24 24 24 24 25 25 25 25 24 25 25 25 26 27 27 28 28 29 29
13 13 13 13 13 13 13 14 14 14 16 16 15 14 14 14 14 14 15 15 16 18 21 22 23 23 24 25 26 26 26 26 27 26 25 25 25 24 24 25 25 25 26 27 26 27 28 29 29 29 28 28 27 27 26 25 25 24 24 25 26 26 26 26 26 26 26 26 27 27 28 29 29 30
15 16 15 15 15 15 16 16 15 14 15 15 14 14 15 16 16 16 17 18 19 21 23 24 25 25 26 26 27 26 26 27 27 26 24 24 25 25 25 26 27 26 26 28 28 28 29 29 31 31 31 30 30 30 30 29 27 27 26 26 26 26 27 27 28 28 28 28 28 28 28 28 29 30
18 18 18 17 17 17 18 18 17 17 16 16 16 16 17 17 17 18 19 20 20 22 23 24 26 27 27 28 27 26 26 27 27 27 26 25 26 26 27 28 30 29 28 29 31 32 31 30 31 32 33 32 31 31 32 32 30 30 30 29 28 28 28 28 29 29 30 30 30 30 29 29 29 30
21 21 20 20 19 18 18 19 19 19 18 18 17 17 17 17 17 18 20 20 21 22 25 27 28 28 27 28 27 26 26 27 28 29 29 29 29 29 29 29 32 32 30 30 32 33 34 34 33 33 35 35 33 32 34 34 33 32 32 32 31 31 30 30 30 30 31 31 32 32 32 31 31 30
23 23 22 21 19 18 18 19 18 18 17 17 17 17 17 17 18 19 21 22 23 24 26 27 28 27 26 26 26 27 27 28 29 30 31 31 31 32 31 30 32 34 32 31 32 33 34 35 35 34 36 36 35 35 35 36 36 35 34 34 34 33 33 32 32 32 32 32 33 33 34 33 33 33
25 24 22 19 18 17 16 16 16 16 16 16 17 18 18 19 19 20 22 24 25 26 27 28 28 27 26 27 28 28 29 31 31 31 32 33 33 33 33 32 33 36 35 34 33 33 34 36 36 35 36 36 36 36 36 37 38 38 37 36 36 35 34 34 34 34 34 34 34 34 35 35 35 35
27 23 19 17 17 16 15 15 15 15 15 16 17 19 21 21 22 23 23 25 26 26 27 28 28 28 28 29 31 32 32 33 34 34 34 35 35 35 35 35 35 36 37 37 36 35 35 37 38 37 37 37 37 37 37 37 38 40 40 39 39 38 37 36 36 36 36 36 36 36 36 36 36 37
23 19 17 17 17 16 15 15 16 16 17 18 20 21 22 22 24 25 25 25 26 27 27 28 29 30 30 32 34 35 34 35 36 36 36 37 38 38 38 38 38 38 39 39 39 38 37 39 40 39 38 38 38 38 38 38 38 39 41 41 40 40 40 39 38 38 37 38 38 38 38 37 37 38
20 19 18 17 18 17 17 17 18 19 19 20 20 21 21 22 24 25 26 26 27 28 29 30 32 33 33 34 36 36 36 36 37 38 38 39 40 40 40 40 40 40 41 41 41 40 39 39 41 41 39 38 39 38 38 39 39 40 41 41 42 42 42 42 41 40 40 39 39 39 39 39 39 39
20 19 18 17 18 18 18 19 19 19 20 21 21 22 23 24 26 27 27 29 29 30 31 32 33 35 35 36 37 37 38 38 39 39 40 40 41 41 41 41 41 41 42 43 43 42 41 40 41 42 40 39 39 38 37 38 39 39 40 41 42 42 42 43 43 43 42 41 41 40 40 40 40 40
20 20 19 19 20 20 19 20 20 20 21 22 23 24 25 26 27 28 29 30 31 31 32 33 34 35 36 36 37 38 39 40 40 41 42 42 42 43 43 42 42 42 42 43 44 44 42 41 40 41 40 39 38 37 37 37 38 38 39 40 41 41 42 42 43 44 44 43 43 42 41 41 41 41
21 21 21 21 21 20 20 21 21 22 23 23 24 24 25 26 27 28 29 30 30 31 32 33 34 35 37 38 38 39 40 41 42 43 43 43 43 44 44 43 43 42 42 42 43 43 42 41 40 39 38 38 37 36 36 36 37 37 37 38 39 39 40 41 41 41 42 43 43 43 42 41 41 40
21 21 21 21 21 21 21 22 23 24 24 24 25 25 26 28 29 29 30 31 32 32 34 35 36 37 38 39 40 41 41 41 41 42 42 42 42 42 42 42 42 41 41 41 42 42 41 40 40 40 39 39 38 38 38 38 38 38 38 38 38 37 37 38 38 39 40 41 42 42 42 41 40 39
20 21 21 21 21 21 22 23 24 24 25 26 27 28 29 30 31 31 32 33 34 35 36 37 37 38 40 41 42 43 42 41 41 41 41 41 41 41 41 40 41 41 40 40 42 42 41 41 41 42 42 42 42 42 42 42 41 41 41 41 40 39 38 37 37 38 39 40 40 41 41 41 40 40
21 21 21 21 21 22 23 24 24 26 27 28 29 30 31 32 34 34 35 35 36 37 37 38 40 42 43 44 45 45 45 44 43 42 40 39 39 39 39 39 39 40 40 40 41 42 43 43 43 44 45 46 46 46 46 46 46 46 45 44 44 44 42 40 39 39 40 41 41 41 41 41 41 41
21 21 21 22 23 23 24 25 26 28 29 31 31 32 33 34 36 37 37 37 37 37 39 41 43 45 46 47 47 47 46 45 43 41 40 39 38 38 39 39 39 40 41 41 43 44 46 47 47 47 47 48 49 49 49 49 48 48 48 48 47 47 46 44 42 42 42 43 43 43 43 43 43 42
22 22 23 24 24 25 26 27 28 30 31 32 32 33 34 35 36 37 37 36 36 38 42 45 46 47 47 47 47 46 44 42 40 38 38 37 37 38 39 41 42 43 43 44 45 47 48 49 49 49 49 50 49 49 49 48 47 47 47 47 47 47 47 46 44 43 44 44 45 45 46 45 45 44
24 24 25 25 26 27 28 29 30 31 32 32 32 33 34 34 35 35 35 36 38 42 45 47 47 47 47 46 44 42 39 38 37 37 37 37 38 39 40 42 43 44 45 46 47 48 49 50 50 49 49 49 48 46 45 43 42 42 41 41 41 42 43 43 43 43 43 44 45 45 46 47 47 47
25 26 26 27 28 29 30 31 32 32 32 32 32 32 32 33 34 35 36 39 43 46 47 47 46 45 44 42 39 37 35 35 35 36 37 38 39 40 41 42 44 45 45 46 47 47 47 48 47 45 44 42 40 38 35 34 34 33 33 34 34 35 35 36 37 38 39 40 41 43 44 46 47 48
26 27 28 29 30 31 32 33 33 33 32 32 32 33 33 34 35 37 40 42 44 45 46 45 44 42 39 37 34 33 33 34 35 37 38 39 40 41 43 43 44 45 45 45 45 44 43 42 40 38 34 31 29 28 28 29 29 29 30 32 32 31 31 31 32 34 34 35 36 38 40 42 43 45
28 29 30 31 32 33 34 35 35 34 33 33 33 34 35 37 38 40 41 43 43 44 43 42 40 37 34 33 33 33 33 34 35 37 39 40 41 43 43 44 44 43 42 42 40 39 37 34 31 28 25 23 23 25 27 29 30 29 30 32 33 32 30 29 30 31 31 31 32 33 34 35 37 38
31 31 32 33 35 36 36 36 36 35 34 34 35 36 37 38 39 41 41 42 42 41 39 37 34 32 31 31 32 33 34 35 36 37 39 41 42 43 43 43 42 40 37 35 33 31 29 26 24 23 22 23 25 26 28 30 31 31 31 32 34 33 31 28 29 29 29 29 29 29 28 28 29 30
31 32 33 34 35 36 36 36 36 35 35 35 36 36 38 38 39 39 39 39 38 36 34 32 30 30 30 31 31 33 34 35 36 38 39 41 42 42 42 41 38 35 30 26 24 24 24 22 22 22 23 25 27 28 29 31 31 32 33 33 33 33 31 29 28 27 28 28 27 25 24 22 23 24
29 30 32 33 34 35 35 35 35 35 35 35 36 37 37 37 37 37 36 35 33 31 29 28 28 28 29 30 31 32 33 35 36 37 38 40 40 39 38 36 32 27 23 20 20 21 22 22 23 24 25 26 27 28 29 30 29 30 32 32 31 30 28 27 26 25 25 26 25 23 21 20 21 23
28 29 31 32 33 33 33 33 34 34 34 35 35 35 35 34 34 33 32 30 28 27 27 27 27 28 28 29 31 32 32 33 34 35 37 37 37 35 33 29 24 21 18 17 18 20 21 23 24 25 26 26 26 25 27 29 29 29 29 29 29 28 26 24 24 23 22 23 23 21 20 20 22 25
27 28 29 30 30 31 31 31 32 32 33 33 33 32 32 31 30 29 27 26 26 25 25 25 26 27 28 29 30 31 31 32 33 34 34 34 33 30 26 22 19 17 16 17 17 19 21 23 24 25 25 25 24 24 25 28 28 28 28 28 27 27 26 24 23 21 20 20 20 19 19 19 21 23
26 27 27 28 28 28 29 29 29 30 30 29 29 29 29 28 27 25 24 24 24 23 24 24 25 26 28 28 29 29 30 31 32 32 31 30 28 24 21 18 16 16 16 17 18 19 21 21 22 23 23 23 24 24 24 26 28 28 28 28 27 27 26 24 22 20 19 17 16 14 13 13 14 15
24 24 25 25 25 25 26 25 26 26 27 27 27 26 26 24 23 23 22 21 22 22 23 24 24 25 26 27 27 28 29 31 31 30 28 25 23 20 18 17 16 16 17 18 19 20 21 20 21 22 22 23 23 24 24 25 27 28 29 28 27 26 25 23 21 19 16 13 9 8 8 9 10 11
20 20 21 22 22 22 22 23 24 24 25 25 25 24 23 21 21 20 19 19 20 21 22 23 24 25 26 26 26 27 28 30 30 28 24 22 20 18 18 18 18 18 18 19 19 20 21 21 21 22 23 23 24 25 26 26 27 28 30 29 26 24 23 21 19 16 13 10 7 6 8 9 10 10
17 19 20 21 21 21 22 22 23 23 23 23 22 21 19 19 18 18 17 18 19 20 21 22 23 24 24 25 25 27 28 29 28 26 22 19 18 18 18 18 18 19 19 20 20 21 21 21 22 22 23 24 24 26 28 27 26 27 29 27 25 22 21 19 15 11 10 9 7 7 8 9 9 10
17 19 21 21 21 21 22 22 22 22 21 20 19 17 17 16 16 16 16 16 17 19 20 21 22 23 23 23 24 26 27 28 27 24 20 17 16 16 17 18 19 20 20 21 21 21 21 22 22 23 24 25 25 25 27 27 26 27 27 25 22 20 18 14 10 9 9 9 7 7 8 8 8 8
19 20 20 20 20 21 22 22 21 20 18 17 16 15 14 14 14 13 14 15 17 18 19 20 21 22 22 22 23 25 26 26 26 23 20 17 15 15 16 17 18 19 20 21 21 20 20 20 20 22 23 24 24 24 24 25 25 26 25 22 19 16 13 9 7 7 8 8 7 7 7 7 7 6
20 19 19 19 20 21 21 20 18 17 16 15 14 13 12 12 12 12 13 14 16 17 18 19 20 21 22 23 24 25 25 25 25 23 20 18 16 15 16 16 17 19 20 20 19 17 16 17 19 21 22 22 22 22 22 23 24 24 22 18 16 13 10 6 5 6 7 6 6 5 5 5 5 5
20 19 18 19 19 18 16 15 15 14 14 13 12 11 11 10 10 11 12 14 15 16 17 19 20 21 22 23 24 24 25 25 25 24 22 19 18 17 16 16 17 18 19 17 15 13 13 15 18 20 20 20 20 20 20 22 22 21 18 15 13 11 8 6 5 5 6 5 5 4 4 4 3 3
19 17 17 17 16 15 14 14 14 13 12 11 10 10 9 9 9 10 12 13 14 15 17 18 19 20 21 22 23 24 25 25 25 24 22 20 18 17 16 16 16 16 16 14 12 11 13 15 18 19 19 19 18 18 19 19 19 17 15 12 11 9 7 5 5 5 5 4 4 3 2 1 1 1
17 15 15 15 14 14 14 15 14 12 11 10 9 8 8 8 9 10 11 12 13 14 15 17 18 20 21 22 22 23 24 24 23 23 22 20 18 16 16 17 16 15 14 14 12 11 13 16 17 18 18 17 17 17 17 17 16 14 12 10 9 8 6 4 4 3 3 3 2 1 1 1 1 1
Wind_Direction
134 137 136 134 134 137 138 139 138 139 140 137 135 136 131 129 137 162 235 278 300 308 316 322 324 324 320 319 318 314 313 310 310 311 311 311 311 308 307 306 305 305 304 302 301 299 298 298 299 300 300 299 297 296 293 291 290 288 283 276 268 263 260 256 253 251 253 256 260 263 265 265 265 264
123 124 121 119 120 121 120 119 119 118 118 120 121 122 122 129 138 142 315 324 329 329 334 337 338 340 339 337 335 332 330 328 325 325 324 322 321 318 315 312 309 306 304 302 301 300 299 299 299 299 299 299 298 297 296 294 293 293 294 292 284 274 268 264 259 256 256 257 259 262 264 266 267 266
121 119 117 118 119 120 121 123 126 131 133 136 140 142 138 138 133 319 317 320 325 325 329 332 332 333 333 331 331 330 329 328 327 326 325 324 324 323 322 318 315 312 309 307 304 302 301 299 299 298 297 296 295 293 292 291 291 290 291 292 292 290 286 281 275 270 268 266 266 266 267 267 267 266
130 129 130 134 136 139 144 147 152 164 177 205 239 262 282 293 302 305 307 311 317 319 321 322 322 322 322 322 323 324 325 326 327 327 327 326 326 325 324 323 321 318 315 312 310 308 306 304 301 299 298 296 294 292 290 288 286 285 285 285 285 286 286 287 286 284 282 279 276 275 274 274 272 269
149 152 158 163 171 181 189 197 210 223 237 252 265 275 282 287 292 294 299 304 309 312 313 314 314 315 316 317 318 319 321 322 323 324 325 325 325 324 324 323 322 320 318 315 313 310 308 306 304 302 301 298 296 294 291 289 286 283 281 281 280 280 280 280 280 280 280 279 277 276 275 275 275 273
175 183 189 197 205 210 215 220 227 234 241 250 258 265 271 275 279 284 291 297 301 305 307 309 311 313 315 315 315 316 317 318 318 319 320 321 321 320 320 320 319 318 316 314 312 309 306 303 302 301 300 300 298 297 295 292 289 286 283 281 279 277 277 276 276 276 276 276 276 276 275 274 273 272
202 207 214 223 228 234 240 244 248 252 256 260 264 269 274 277 280 281 285 292 298 302 303 305 308 311 313 313 314 315 315 316 316 316 317 317 317 317 316 315 316 316 314 313 312 309 306 302 299 296 295 294 295 295 294 294 291 289 287 284 281 279 278 276 275 274 274 274 275 275 276 275 274 272
238 242 245 248 252 256 259 262 265 268 271 274 276 279 282 285 287 288 289 295 301 305 307 309 310 311 312 313 314 315 315 314 313 312 312 313 313 313 313 312 313 313 313 313 312 311 309 307 304 300 297 294 292 291 290 290 289 289 288 286 284 282 280 278 277 275 274 273 273 273 274 274 274 273
251 257 260 265 268 270 273 276 278 278 279 278 278 279 281 284 288 291 295 298 303 307 309 310 311 311 311 312 312 313 313 312 310 310 309 309 309 309 308 309 309 310 310 309 309 308 307 306 305 303 301 298 296 293 290 287 286 285 285 284 284 283 281 280 278 277 276 274 272 271 271 271 271 271
247 252 257 264 269 272 276 276 276 279 279 275 274 277 281 287 291 293 296 298 301 305 307 308 308 309 309 310 311 311 311 309 309 309 309 308 307 306 305 305 305 307 307 306 306 306 305 305 304 303 302 301 299 297 293 290 287 284 281 280 280 280 280 280 279 277 276 275 274 272 270 270 269 269
248 250 254 261 267 273 276 276 278 281 278 273 274 279 285 289 292 294 297 299 302 304 306 307 308 309 310 310 310 310 310 308 308 308 307 305 305 306 305 304 304 305 305 304 304 303 303 304 304 303 302 301 301 299 297 294 292 288 284 280 278 276 276 276 276 276 276 275 274 272 271 269 268 268
249 252 257 264 270 276 279 280 280 278 274 272 276 282 285 287 290 295 298 300 304 306 307 308 309 311 312 311 310 309 308 308 307 307 307 306 305 305 305 304 303 304 304 303 302 302 301 301 300 300 299 299 298 297 296 295 294 291 289 286 282 278 275 273 272 272 272 273 273 272 271 269 268 267
255 259 265 270 274 276 277 277 276 273 273 277 281 286 289 290 295 300 299 302 306 308 308 309 310 313 313 312 310 309 307 307 307 307 307 306 305 305 305 304 303 303 304 303 302 303 303 302 301 299 298 298 297 295 293 293 293 291 290 288 286 283 279 276 272 270 268 268 269 270 270 270 269 268
260 262 265 269 273 274 274 273 272 272 275 280 285 290 293 294 297 299 298 302 307 307 307 308 309 311 310 309 308 307 306 306 306 306 306 306 306 306 305 305 304 303 304 303 302 302 302 301 301 299 298 298 297 295 294 293 292 290 288 287 286 284 282 279 276 272 269 267 266 266 266 267 268 268
264 261 259 265 271 272 272 272 271 272 276 280 285 291 293 294 296 296 298 302 306 306 306 307 308 308 308 307 306 305 307 307 307 307 307 306 306 306 305 306 305 304 305 304 303 302 301 300 299 298 297 296 296 295 294 293 292 291 289 287 285 283 281 279 277 275 272 270 267 264 264 264 264 265
262 256 256 265 271 271 271 272 272 274 279 283 288 292 294 295 296 297 298 301 302 302 303 303 304 305 305 305 304 305 306 306 306 307 306 306 306 305 305 305 304 304 304 304 303 303 301 299 298 297 296 295 294 293 291 290 289 289 288 287 286 284 282 279 277 275 273 272 270 267 264 262 262 263
257 256 264 268 268 267 267 268 273 278 283 287 289 292 293 294 295 297 297 298 298 299 300 301 302 303 303 303 302 304 305 305 305 305 305 305 305 304 305 305 305 305 304 304 304 303 302 300 298 297 296 294 292 291 289 287 285 284 284 284 283 282 281 279 277 274 272 271 270 268 266 264 262 261
261 264 268 264 261 264 266 271 279 283 286 288 290 292 292 293 295 297 297 298 298 299 301 301 301 301 301 301 301 303 304 304 304 304 304 304 304 304 304 304 305 305 303 302 302 301 301 301 299 298 297 294 293 291 289 287 285 282 281 280 279 278 277 277 276 274 272 270 268 267 267 266 264 262
260 259 257 255 260 266 271 278 284 288 291 293 294 295 296 296 296 297 298 298 298 299 299 299 299 299 300 300 301 302 303 303 303 303 302 302 302 302 302 302 302 302 301 300 300 300 301 301 299 298 298 297 295 293 291 288 286 284 282 280 278 276 275 274 273 272 271 270 268 267 265 265 264 263
249 248 249 254 263 272 278 284 289 293 295 296 296 296 296 295 295 295 296 296 296 297 297 297 297 298 299 300 300 301 302 302 302 302 302 302 302 301 302 302 302 302 302 302 302 302 302 302 300 299 298 298 296 295 293 290 288 286 284 282 280 278 276 273 271 271 270 270 269 267 265 264 263 262
241 245 251 259 268 277 283 289 292 294 295 296 297 297 297 296 295 296 296 297 297 297 297 297 298 298 299 300 300 300 301 301 301 301 301 301 301 301 302 303 303 303 303 303 302 302 302 301 300 298 297 297 296 294 293 291 289 288 285 283 282 280 279 277 274 272 271 269 269 268 266 265 264 263
244 251 259 267 274 281 286 290 292 295 297 299 300 300 299 299 299 299 299 299 298 299 299 299 299 300 300 301 302 302 303 303 302 302 302 302 301 302 302 303 303 303 303 302 302 301 301 300 299 298 298 297 296 295 294 291 290 288 287 285 283 281 280 279 278 276 273 270 269 268 267 266 265 264
254 260 266 272 277 282 286 290 294 297 300 301 301 301 301 301 301 301 300 300 300 300 300 301 302 303 304 305 306 306 306 306 306 305 305 304 304 303 303 303 303 303 303 302 302 302 301 300 300 300 300 299 297 296 295 293 291 290 288 287 285 283 280 278 276 275 274 273 270 268 267 266 265 264
260 265 269 273 277 281 286 290 295 300 302 303 303 302 302 302 302 301 301 301 301 302 303 305 306 307 308 308 308 307 307 307 307 306 305 305 304 303 302 302 302 302 302 302 302 301 300 300 299 300 299 298 297 296 295 295 294 292 291 289 287 285 282 278 275 273 272 271 271 269 268 266 265 264
261 265 268 271 275 280 286 291 297 301 303 303 303 302 301 301 301 300 300 300 301 303 305 307 308 308 308 308 308 308 308 307 307 307 306 305 303 303 303 303 302 302 303 303 302 301 301 301 300 300 299 298 297 296 295 295 294 293 292 290 288 286 283 281 278 274 271 269 268 268 267 266 265 264
259 262 266 270 276 282 288 294 298 301 303 302 301 301 300 299 299 299 299 299 300 303 306 307 308 308 309 309 309 309 308 307 306 306 305 304 304 304 304 304 303 303 303 302 301 301 300 300 300 299 298 297 296 296 295 295 294 292 291 289 288 286 284 282 279 275 272 269 268 266 265 265 264 264
259 263 268 274 280 286 291 294 297 299 300 299 299 301 302 301 299 298 297 297 300 304 306 307 307 308 308 308 308 307 306 305 305 304 304 304 304 303 302 302 301 301 301 301 300 300 300 299 299 299 298 298 297 297 296 295 294 293 291 290 288 287 285 283 280 276 273 270 268 266 265 264 263 262
264 269 274 279 284 288 290 293 295 296 297 297 297 300 302 301 299 297 296 297 300 303 305 306 306 307 307 306 305 304 303 303 303 303 303 302 301 300 299 299 298 298 299 299 299 299 299 298 298 298 298 299 299 299 299 298 297 297 296 293 291 288 287 285 283 280 276 272 269 266 264 263 262 261
270 274 279 282 286 288 290 292 293 294 294 295 296 298 299 299 298 298 298 299 302 303 305 305 306 306 304 303 302 301 301 302 302 301 300 300 299 298 298 297 298 298 299 299 299 299 297 296 296 297 298 299 300 302 303 302 303 304 301 296 293 290 290 289 287 285 282 278 273 269 266 264 263 262
275 278 281 284 286 288 289 291 292 293 294 294 294 296 297 299 300 300 301 302 303 304 304 304 304 302 300 300 300 300 300 301 301 300 300 299 299 298 298 299 300 301 302 302 301 298 297 298 299 300 301 302 304 306 307 307 308 308 303 298 295 293 292 291 289 287 286 283 277 273 270 268 267 266
280 282 283 285 286 287 288 289 290 291 293 293 294 295 297 299 300 301 302 302 303 303 303 302 300 298 298 298 299 300 301 302 302 302 300 300 300 300 301 302 303 304 304 302 299 297 297 300 301 302 304 306 308 309 309 310 311 308 303 300 297 295 294 292 289 286 286 284 280 276 274 272 272 272
280 281 283 283 284 285 286 287 289 291 292 294 295 296 297 298 299 300 301 301 301 300 299 297 295 295 297 299 301 303 304 305 305 304 303 303 303 304 304 304 305 305 303 300 298 298 299 301 302 303 306 308 310 311 310 310 309 306 303 301 300 299 297 295 290 285 284 283 281 279 277 278 279 281
278 279 281 282 282 283 285 286 289 291 292 293 294 295 296 297 298 299 299 299 298 296 294 293 294 297 299 301 303 305 306 306 307 306 305 305 305 305 306 306 305 304 301 299 300 301 301 302 303 304 304 306 308 310 310 309 309 308 306 305 303 301 299 296 292 286 282 281 280 278 279 282 285 286
277 278 279 280 281 283 285 287 289 290 291 292 292 293 293 294 296 297 297 295 293 292 292 294 297 299 302 304 305 307 308 309 309 309 308 308 307 306 306 305 303 301 299 301 303 303 304 305 305 305 306 306 308 311 311 312 314 314 312 309 305 303 303 300 295 289 285 282 279 277 279 284 286 285
275 277 278 280 282 283 285 287 288 289 289 289 289 289 290 292 293 292 291 289 290 291 294 297 300 302 305 307 309 310 311 312 313 313 311 309 307 306 305 302 299 297 299 303 306 307 307 307 307 307 308 309 310 313 315 316 319 320 316 312 308 306 305 302 296 291 288 283 279 279 284 289 288 285
280 281 282 282 282 282 284 285 285 285 285 285 286 287 288 289 289 287 286 288 291 295 298 301 303 305 307 309 312 314 316 317 318 317 313 309 306 304 301 296 294 294 299 305 308 308 308 308 308 310 312 311 311 312 313 317 322 324 320 315 311 308 306 302 296 292 288 283 279 283 293 298 296 295
283 283 283 282 281 281 281 281 280 280 281 282 283 285 286 286 285 286 288 292 296 299 300 302 304 307 310 313 316 319 321 323 322 319 314 308 304 299 293 288 288 292 298 304 305 306 307 308 308 309 309 308 308 310 312 316 322 324 322 318 314 311 309 304 298 292 285 278 274 283 298 304 304 307
284 286 287 285 282 280 277 276 276 276 278 281 283 284 283 283 284 287 292 296 299 301 303 305 307 310 314 317 320 324 326 327 325 322 316 309 303 296 288 285 287 291 296 300 301 302 303 303 303 303 304 306 309 311 313 316 320 323 323 321 318 316 313 307 299 287 271 262 262 278 296 305 304 303
290 294 293 288 283 279 276 274 274 276 277 280 281 281 280 280 284 290 294 298 301 303 305 306 309 314 318 321 324 328 330 330 329 326 319 312 306 299 292 290 290 292 293 296 297 297 297 298 299 301 305 308 311 311 313 315 319 322 323 322 320 318 315 308 296 275 256 255 265 281 296 304 304 302
292 296 293 287 282 280 279 277 275 275 276 277 276 276 277 281 286 292 296 300 303 304 306 308 313 318 322 325 327 330 332 334 334 331 324 317 310 304 298 296 294 293 293 294 296 295 295 297 300 303 306 308 310 311 313 315 318 322 324 323 321 320 316 306 288 264 256 262 273 284 295 301 303 306
286 290 288 283 280 280 280 278 275 272 271 271 271 273 277 282 288 294 300 303 304 305 308 312 317 323 327 328 329 332 336 338 339 336 330 322 316 310 304 301 299 298 297 297 297 296 295 298 302 305 306 307 310 313 314 315 318 323 324 324 325 323 316 299 273 262 264 269 274 283 292 300 306 312
281 282 280 277 279 280 278 274 269 266 265 266 269 272 276 282 291 299 302 303 304 307 311 317 323 330 333 332 332 336 340 341 342 341 336 328 321 316 310 308 307 305 303 302 301 299 299 303 307 308 307 309 311 314 314 315 320 324 325 326 329 326 313 289 266 264 270 275 279 284 293 305 317 326
274 271 268 270 274 275 271 265 262 261 262 264 266 270 276 284 295 301 302 303 307 311 317 323 329 334 335 334 334 339 342 344 345 345 341 333 325 320 315 314 313 311 309 307 306 306 308 311 312 311 312 315 317 316 315 318 324 327 327 327 330 327 311 283 258 252 255 264 280 298 310 317 324 332
261 256 258 264 266 263 259 259 259 258 258 259 261 268 277 288 297 300 301 305 310 315 321 327 332 335 336 337 338 342 345 346 347 346 343 336 328 321 317 317 318 316 312 308 307 310 315 317 317 319 322 324 323 320 320 324 330 332 331 330 330 326 315 292 265 252 246 251 271 295 312 322 327 336
247 246 252 256 254 251 252 255 254 251 251 253 259 268 280 290 294 297 301 307 313 319 325 330 333 336 338 339 342 344 345 346 347 348 346 342 335 325 317 316 318 319 314 308 308 315 320 320 321 324 327 329 328 326 326 329 333 335 336 336 331 324 317 308 289 272 256 246 251 249 126 102 10 346